QPF
0.04 0.03 0.04 0.04 0.03 0.02 0.02 0.02 0.04 0.04 0.02 0.02 0.03 0.03 0.02 0.03 0.04 0.03 0.04 0.04 0.05 0.04 0.03 0.03 0.04 0.10 0.23 0.20 0.11 0.09 0.13 0.12 0.07 0.05 0.06 0.06 0.06 0.06 0.05 0.05 0.03 0.04 0.05
0.04 0.02 0.04 0.05 0.03 0.02 0.02 0.03 0.05 0.04 0.04 0.03 0.03 0.04 0.02 0.02 0.02 0.02 0.03 0.04 0.04 0.03 0.02 0.02 0.03 0.07 0.18 0.23 0.21 0.18 0.15 0.10 0.06 0.06 0.07 0.06 0.06 0.06 0.05 0.05 0.02 0.04 0.05
0.02 0.01 0.04 0.05 0.03 0.02 0.03 0.04 0.05 0.05 0.04 0.05 0.05 0.05 0.04 0.04 0.04 0.02 0.03 0.03 0.03 0.03 0.03 0.02 0.02 0.05 0.10 0.15 0.17 0.15 0.10 0.07 0.05 0.06 0.06 0.04 0.05 0.05 0.08 0.09 0.06 0.06 0.05
0.01 0.00 0.02 0.04 0.03 0.02 0.01 0.03 0.05 0.05 0.04 0.05 0.06 0.04 0.04 0.05 0.06 0.04 0.03 0.03 0.03 0.02 0.02 0.02 0.01 0.03 0.05 0.07 0.09 0.08 0.07 0.06 0.06 0.05 0.05 0.05 0.05 0.08 0.10 0.10 0.10 0.09 0.09
0.01 0.00 0.02 0.03 0.03 0.02 0.02 0.03 0.04 0.04 0.03 0.04 0.06 0.04 0.04 0.05 0.05 0.04 0.03 0.03 0.03 0.02 0.02 0.02 0.02 0.02 0.03 0.06 0.07 0.07 0.07 0.06 0.06 0.06 0.06 0.05 0.05 0.08 0.09 0.10 0.12 0.11 0.08
0.01 0.00 0.01 0.02 0.02 0.03 0.06 0.07 0.05 0.04 0.03 0.04 0.04 0.03 0.03 0.04 0.05 0.04 0.03 0.03 0.02 0.01 0.02 0.02 0.02 0.02 0.03 0.05 0.05 0.08 0.09 0.07 0.05 0.04 0.06 0.05 0.05 0.07 0.06 0.07 0.07 0.06 0.05
0.01 0.00 0.01 0.03 0.02 0.06 0.09 0.04 0.03 0.03 0.03 0.02 0.02 0.03 0.03 0.03 0.03 0.03 0.02 0.02 0.01 0.01 0.02 0.02 0.02 0.02 0.02 0.03 0.04 0.05 0.05 0.05 0.04 0.03 0.07 0.07 0.06 0.07 0.05 0.04 0.03 0.03 0.04
0.02 0.01 0.02 0.03 0.03 0.10 0.14 0.08 0.04 0.04 0.03 0.02 0.02 0.02 0.02 0.03 0.03 0.02 0.02 0.02 0.02 0.01 0.01 0.01 0.01 0.01 0.01 0.02 0.04 0.04 0.04 0.04 0.02 0.03 0.06 0.08 0.08 0.06 0.05 0.04 0.03 0.03 0.06
0.04 0.02 0.02 0.02 0.03 0.08 0.14 0.12 0.07 0.05 0.02 0.01 0.02 0.01 0.02 0.03 0.02 0.02 0.02 0.03 0.02 0.01 0.01 0.01 0.01 0.01 0.01 0.01 0.02 0.03 0.03 0.03 0.02 0.01 0.03 0.07 0.08 0.07 0.06 0.04 0.03 0.03 0.05
0.05 0.05 0.04 0.04 0.03 0.03 0.06 0.05 0.03 0.03 0.01 0.01 0.02 0.01 0.02 0.03 0.02 0.02 0.01 0.02 0.01 0.01 0.00 0.00 0.00 0.01 0.01 0.01 0.01 0.02 0.03 0.03 0.02 0.02 0.05 0.08 0.08 0.07 0.06 0.04 0.04 0.04 0.04
0.06 0.04 0.03 0.03 0.03 0.03 0.02 0.02 0.02 0.01 0.01 0.01 0.01 0.01 0.01 0.01 0.01 0.01 0.01 0.01 0.01 0.01 0.01 0.01 0.01 0.00 0.00 0.00 0.01 0.01 0.02 0.03 0.03 0.03 0.06 0.08 0.06 0.03 0.02 0.02 0.03 0.04 0.05
0.04 0.03 0.01 0.01 0.02 0.02 0.01 0.01 0.01 0.00 0.01 0.01 0.01 0.01 0.00 0.00 0.01 0.01 0.01 0.02 0.01 0.01 0.01 0.01 0.01 0.01 0.00 0.00 0.01 0.01 0.02 0.03 0.03 0.03 0.04 0.05 0.04 0.04 0.03 0.03 0.04 0.04 0.05
0.01 0.01 0.01 0.01 0.01 0.01 0.01 0.01 0.01 0.01 0.01 0.01 0.01 0.01 0.01 0.01 0.01 0.01 0.02 0.02 0.02 0.01 0.01 0.01 0.01 0.01 0.01 0.01 0.01 0.01 0.02 0.01 0.02 0.03 0.03 0.04 0.05 0.05 0.05 0.03 0.04 0.04 0.05
0.01 0.00 0.00 0.00 0.01 0.01 0.01 0.01 0.01 0.02 0.02 0.03 0.02 0.03 0.02 0.01 0.01 0.01 0.02 0.02 0.02 0.01 0.01 0.01 0.00 0.01 0.01 0.01 0.01 0.01 0.02 0.01 0.01 0.01 0.02 0.04 0.05 0.06 0.06 0.05 0.03 0.03 0.04
0.00 0.00 0.00 0.00 0.01 0.00 0.00 0.01 0.01 0.01 0.02 0.02 0.03 0.04 0.07 0.07 0.03 0.02 0.02 0.01 0.02 0.01 0.01 0.01 0.01 0.01 0.01 0.01 0.01 0.02 0.01 0.00 0.00 0.01 0.03 0.04 0.04 0.04 0.03 0.04 0.04 0.04 0.04
0.01 0.00 0.01 0.01 0.00 0.00 0.00 0.00 0.00 0.01 0.01 0.03 0.03 0.04 0.09 0.13 0.08 0.03 0.03 0.02 0.02 0.01 0.01 0.02 0.01 0.01 0.02 0.02 0.01 0.02 0.01 0.01 0.01 0.02 0.02 0.02 0.02 0.02 0.03 0.04 0.04 0.04 0.04
0.01 0.00 0.01 0.01 0.01 0.00 0.00 0.00 0.01 0.00 0.01 0.02 0.03 0.04 0.06 0.10 0.08 0.05 0.03 0.02 0.02 0.01 0.01 0.01 0.01 0.01 0.01 0.01 0.01 0.01 0.01 0.02 0.02 0.02 0.01 0.01 0.01 0.02 0.04 0.04 0.05 0.07 0.08
0.01 0.01 0.01 0.01 0.00 0.00 0.00 0.00 0.01 0.01 0.01 0.01 0.02 0.05 0.05 0.05 0.07 0.07 0.06 0.04 0.02 0.02 0.01 0.02 0.02 0.01 0.01 0.01 0.01 0.01 0.01 0.01 0.01 0.01 0.01 0.00 0.00 0.01 0.02 0.03 0.08 0.13 0.17
0.01 0.02 0.02 0.01 0.01 0.01 0.01 0.01 0.01 0.01 0.01 0.01 0.02 0.05 0.07 0.03 0.03 0.05 0.05 0.03 0.02 0.02 0.01 0.01 0.01 0.01 0.01 0.02 0.01 0.01 0.01 0.01 0.01 0.01 0.01 0.00 0.00 0.00 0.00 0.01 0.03 0.05 0.07
0.02 0.03 0.03 0.04 0.03 0.02 0.01 0.01 0.01 0.01 0.01 0.01 0.01 0.03 0.06 0.04 0.02 0.02 0.03 0.02 0.02 0.02 0.01 0.02 0.02 0.01 0.01 0.00 0.00 0.00 0.01 0.01 0.00 0.01 0.02 0.02 0.02 0.01 0.01 0.01 0.01 0.02 0.03
0.02 0.01 0.01 0.03 0.02 0.01 0.01 0.01 0.01 0.01 0.00 0.00 0.00 0.01 0.04 0.05 0.03 0.01 0.01 0.01 0.01 0.01 0.01 0.01 0.02 0.02 0.01 0.00 0.01 0.00 0.00 0.01 0.01 0.01 0.02 0.02 0.03 0.03 0.03 0.03 0.03 0.02 0.01
0.02 0.01 0.01 0.02 0.03 0.02 0.01 0.01 0.01 0.01 0.00 0.00 0.00 0.00 0.01 0.03 0.03 0.01 0.01 0.00 0.00 0.00 0.01 0.01 0.01 0.01 0.02 0.02 0.01 0.01 0.00 0.00 0.01 0.02 0.02 0.01 0.02 0.03 0.03 0.04 0.04 0.03 0.02
0.03 0.02 0.02 0.02 0.02 0.03 0.02 0.01 0.01 0.01 0.01 0.00 0.00 0.00 0.00 0.01 0.01 0.01 0.01 0.00 0.00 0.00 0.00 0.00 0.01 0.01 0.01 0.02 0.02 0.01 0.00 0.00 0.00 0.01 0.02 0.01 0.01 0.01 0.02 0.03 0.03 0.03 0.02
0.04 0.04 0.04 0.03 0.03 0.02 0.02 0.01 0.01 0.01 0.01 0.00 0.00 0.00 0.00 0.00 0.00 0.00 0.01 0.01 0.01 0.00 0.00 0.00 0.00 0.01 0.01 0.01 0.02 0.01 0.01 0.01 0.01 0.00 0.00 0.00 0.01 0.01 0.01 0.02 0.03 0.03 0.02
0.05 0.06 0.05 0.04 0.04 0.03 0.03 0.03 0.01 0.01 0.01 0.01 0.00 0.00 0.00 0.00 0.00 0.00 0.01 0.01 0.01 0.00 0.00 0.00 0.00 0.00 0.01 0.01 0.02 0.02 0.02 0.01 0.01 0.01 0.01 0.00 0.00 0.00 0.01 0.01 0.02 0.02 0.02
0.06 0.06 0.05 0.06 0.08 0.09 0.08 0.06 0.04 0.03 0.03 0.03 0.01 0.01 0.00 0.00 0.00 0.01 0.00 0.00 0.00 0.00 0.00 0.00 0.00 0.00 0.00 0.01 0.01 0.02 0.02 0.02 0.01 0.01 0.01 0.01 0.01 0.01 0.01 0.01 0.02 0.02 0.01
MSLP
1012.55 1012.15 1011.93 1011.92 1012.10 1012.37 1012.64 1012.84 1012.92 1012.86 1012.72 1012.55 1012.44 1012.42 1012.53 1012.75 1013.03 1013.31 1013.56 1013.73 1013.82 1013.84 1013.83 1013.81 1013.81 1013.84 1013.90 1013.97 1014.03 1014.07 1014.06 1014.01 1013.94 1013.84 1013.73 1013.62 1013.51 1013.39 1013.27 1013.13 1012.98 1012.82 1012.66
1012.35 1012.04 1011.91 1011.98 1012.22 1012.53 1012.83 1013.03 1013.10 1013.04 1012.90 1012.75 1012.66 1012.69 1012.84 1013.09 1013.40 1013.71 1013.96 1014.13 1014.21 1014.22 1014.20 1014.17 1014.17 1014.19 1014.23 1014.28 1014.30 1014.30 1014.27 1014.21 1014.13 1014.05 1013.97 1013.90 1013.82 1013.73 1013.62 1013.48 1013.31 1013.12 1012.92
1012.11 1011.88 1011.83 1011.98 1012.28 1012.64 1012.97 1013.19 1013.27 1013.23 1013.10 1012.98 1012.93 1012.99 1013.16 1013.43 1013.75 1014.05 1014.28 1014.43 1014.50 1014.51 1014.49 1014.47 1014.48 1014.51 1014.55 1014.58 1014.59 1014.57 1014.51 1014.45 1014.37 1014.31 1014.27 1014.23 1014.18 1014.12 1014.01 1013.86 1013.68 1013.47 1013.26
1011.87 1011.72 1011.75 1011.96 1012.31 1012.71 1013.07 1013.31 1013.42 1013.41 1013.32 1013.23 1013.21 1013.29 1013.48 1013.74 1014.04 1014.30 1014.51 1014.63 1014.69 1014.70 1014.70 1014.72 1014.76 1014.82 1014.88 1014.92 1014.93 1014.90 1014.84 1014.77 1014.71 1014.66 1014.64 1014.62 1014.60 1014.54 1014.44 1014.29 1014.09 1013.87 1013.64
1011.68 1011.61 1011.70 1011.96 1012.35 1012.77 1013.15 1013.42 1013.55 1013.57 1013.52 1013.47 1013.48 1013.59 1013.77 1014.02 1014.28 1014.50 1014.67 1014.77 1014.82 1014.85 1014.88 1014.95 1015.05 1015.16 1015.27 1015.34 1015.36 1015.34 1015.28 1015.21 1015.15 1015.11 1015.09 1015.08 1015.06 1015.00 1014.89 1014.73 1014.52 1014.29 1014.07
1011.62 1011.60 1011.73 1012.03 1012.43 1012.87 1013.25 1013.53 1013.68 1013.72 1013.71 1013.70 1013.75 1013.86 1014.05 1014.28 1014.50 1014.69 1014.82 1014.90 1014.95 1015.00 1015.09 1015.21 1015.38 1015.55 1015.71 1015.83 1015.88 1015.87 1015.82 1015.74 1015.68 1015.63 1015.61 1015.59 1015.55 1015.47 1015.34 1015.16 1014.95 1014.72 1014.51
1011.68 1011.71 1011.89 1012.20 1012.61 1013.03 1013.40 1013.66 1013.81 1013.88 1013.90 1013.93 1014.01 1014.15 1014.34 1014.56 1014.76 1014.91 1015.01 1015.08 1015.13 1015.21 1015.34 1015.53 1015.76 1016.00 1016.21 1016.37 1016.45 1016.46 1016.41 1016.34 1016.26 1016.20 1016.15 1016.10 1016.04 1015.93 1015.78 1015.59 1015.37 1015.15 1014.95
1011.87 1011.95 1012.16 1012.49 1012.88 1013.27 1013.60 1013.83 1013.97 1014.04 1014.09 1014.16 1014.28 1014.46 1014.67 1014.89 1015.08 1015.22 1015.30 1015.36 1015.42 1015.51 1015.68 1015.91 1016.18 1016.47 1016.73 1016.92 1017.03 1017.05 1017.01 1016.93 1016.84 1016.76 1016.69 1016.61 1016.52 1016.39 1016.22 1016.02 1015.80 1015.59 1015.41
1012.11 1012.26 1012.51 1012.84 1013.21 1013.56 1013.84 1014.04 1014.15 1014.22 1014.29 1014.40 1014.57 1014.79 1015.04 1015.29 1015.49 1015.62 1015.70 1015.74 1015.80 1015.90 1016.07 1016.32 1016.62 1016.94 1017.22 1017.44 1017.57 1017.60 1017.57 1017.49 1017.39 1017.29 1017.20 1017.10 1016.98 1016.84 1016.66 1016.45 1016.25 1016.06 1015.90
1012.34 1012.56 1012.86 1013.20 1013.56 1013.87 1014.10 1014.25 1014.34 1014.40 1014.49 1014.64 1014.86 1015.14 1015.44 1015.72 1015.94 1016.09 1016.16 1016.20 1016.25 1016.34 1016.50 1016.74 1017.05 1017.37 1017.66 1017.89 1018.03 1018.08 1018.06 1017.98 1017.89 1017.78 1017.68 1017.57 1017.45 1017.30 1017.12 1016.93 1016.74 1016.57 1016.44
1012.46 1012.77 1013.13 1013.51 1013.85 1014.13 1014.33 1014.44 1014.51 1014.57 1014.68 1014.87 1015.14 1015.48 1015.83 1016.15 1016.41 1016.57 1016.65 1016.68 1016.71 1016.79 1016.93 1017.15 1017.43 1017.74 1018.03 1018.27 1018.42 1018.49 1018.48 1018.42 1018.34 1018.24 1018.14 1018.03 1017.92 1017.78 1017.63 1017.47 1017.30 1017.16 1017.04
1012.41 1012.82 1013.26 1013.67 1014.04 1014.31 1014.48 1014.57 1014.62 1014.69 1014.83 1015.05 1015.38 1015.76 1016.16 1016.53 1016.82 1017.01 1017.10 1017.13 1017.15 1017.21 1017.33 1017.52 1017.78 1018.07 1018.36 1018.60 1018.76 1018.85 1018.87 1018.83 1018.77 1018.69 1018.60 1018.51 1018.42 1018.31 1018.19 1018.06 1017.93 1017.81 1017.70
1012.19 1012.70 1013.21 1013.68 1014.07 1014.35 1014.52 1014.62 1014.67 1014.76 1014.92 1015.18 1015.54 1015.97 1016.41 1016.81 1017.13 1017.35 1017.46 1017.51 1017.53 1017.58 1017.69 1017.87 1018.11 1018.40 1018.68 1018.93 1019.12 1019.23 1019.27 1019.27 1019.22 1019.16 1019.09 1019.02 1018.94 1018.86 1018.77 1018.68 1018.58 1018.49 1018.40
1011.82 1012.40 1012.98 1013.51 1013.94 1014.25 1014.45 1014.57 1014.66 1014.78 1014.97 1015.25 1015.64 1016.09 1016.55 1016.98 1017.33 1017.57 1017.71 1017.79 1017.84 1017.90 1018.02 1018.21 1018.46 1018.75 1019.05 1019.31 1019.52 1019.66 1019.74 1019.75 1019.72 1019.67 1019.61 1019.55 1019.49 1019.42 1019.36 1019.30 1019.23 1019.16 1019.08
1011.35 1011.98 1012.61 1013.19 1013.67 1014.03 1014.29 1014.46 1014.60 1014.76 1014.97 1015.28 1015.68 1016.13 1016.59 1017.03 1017.39 1017.67 1017.85 1017.98 1018.07 1018.19 1018.34 1018.57 1018.85 1019.16 1019.48 1019.78 1020.01 1020.18 1020.28 1020.31 1020.29 1020.24 1020.17 1020.10 1020.04 1019.98 1019.93 1019.89 1019.84 1019.78 1019.72
1010.84 1011.49 1012.15 1012.76 1013.30 1013.73 1014.06 1014.31 1014.51 1014.72 1014.97 1015.29 1015.68 1016.11 1016.56 1016.99 1017.37 1017.67 1017.90 1018.09 1018.26 1018.44 1018.67 1018.95 1019.28 1019.64 1019.99 1020.32 1020.59 1020.78 1020.89 1020.93 1020.91 1020.85 1020.76 1020.67 1020.59 1020.52 1020.46 1020.42 1020.38 1020.34 1020.28
1010.36 1010.99 1011.65 1012.30 1012.88 1013.39 1013.80 1014.14 1014.43 1014.70 1014.98 1015.31 1015.68 1016.08 1016.50 1016.91 1017.28 1017.61 1017.90 1018.16 1018.42 1018.69 1019.00 1019.35 1019.74 1020.15 1020.55 1020.91 1021.20 1021.42 1021.55 1021.59 1021.57 1021.49 1021.38 1021.25 1021.14 1021.03 1020.95 1020.90 1020.86 1020.82 1020.76
1009.94 1010.53 1011.17 1011.83 1012.46 1013.04 1013.55 1013.99 1014.36 1014.70 1015.03 1015.35 1015.70 1016.06 1016.43 1016.81 1017.17 1017.53 1017.87 1018.21 1018.55 1018.92 1019.32 1019.75 1020.20 1020.65 1021.09 1021.48 1021.80 1022.04 1022.18 1022.24 1022.21 1022.12 1021.99 1021.84 1021.69 1021.55 1021.44 1021.35 1021.30 1021.25 1021.20
1009.59 1010.13 1010.74 1011.40 1012.07 1012.72 1013.32 1013.86 1014.33 1014.74 1015.09 1015.42 1015.74 1016.05 1016.38 1016.72 1017.08 1017.45 1017.84 1018.25 1018.68 1019.14 1019.61 1020.10 1020.60 1021.10 1021.55 1021.97 1022.31 1022.57 1022.74 1022.83 1022.82 1022.74 1022.60 1022.43 1022.26 1022.09 1021.94 1021.82 1021.74 1021.67 1021.62
1009.30 1009.78 1010.36 1011.02 1011.72 1012.43 1013.12 1013.75 1014.31 1014.78 1015.18 1015.51 1015.80 1016.07 1016.35 1016.66 1017.01 1017.39 1017.82 1018.29 1018.79 1019.31 1019.85 1020.39 1020.91 1021.42 1021.89 1022.32 1022.69 1022.98 1023.19 1023.31 1023.35 1023.31 1023.20 1023.04 1022.85 1022.66 1022.49 1022.34 1022.22 1022.13 1022.05
1009.04 1009.48 1010.03 1010.68 1011.41 1012.18 1012.94 1013.65 1014.29 1014.82 1015.25 1015.59 1015.86 1016.10 1016.35 1016.63 1016.97 1017.36 1017.82 1018.33 1018.88 1019.45 1020.01 1020.57 1021.10 1021.60 1022.08 1022.51 1022.89 1023.22 1023.49 1023.68 1023.78 1023.81 1023.75 1023.64 1023.47 1023.28 1023.09 1022.91 1022.75 1022.62 1022.52
1008.78 1009.20 1009.74 1010.39 1011.14 1011.95 1012.77 1013.55 1014.25 1014.83 1015.30 1015.65 1015.91 1016.14 1016.36 1016.62 1016.95 1017.36 1017.84 1018.38 1018.95 1019.53 1020.10 1020.65 1021.17 1021.65 1022.10 1022.53 1022.93 1023.30 1023.63 1023.90 1024.10 1024.22 1024.25 1024.20 1024.08 1023.90 1023.70 1023.50 1023.31 1023.14 1023.00
1008.51 1008.93 1009.47 1010.12 1010.89 1011.73 1012.59 1013.42 1014.17 1014.80 1015.29 1015.66 1015.93 1016.16 1016.38 1016.64 1016.97 1017.38 1017.87 1018.42 1019.00 1019.58 1020.13 1020.65 1021.13 1021.58 1022.00 1022.42 1022.83 1023.24 1023.63 1023.99 1024.30 1024.52 1024.65 1024.68 1024.62 1024.48 1024.29 1024.07 1023.85 1023.64 1023.46
1008.21 1008.65 1009.19 1009.86 1010.63 1011.49 1012.38 1013.24 1014.03 1014.70 1015.23 1015.62 1015.91 1016.15 1016.38 1016.65 1016.99 1017.42 1017.92 1018.47 1019.04 1019.60 1020.12 1020.59 1021.03 1021.42 1021.81 1022.21 1022.63 1023.07 1023.52 1023.96 1024.36 1024.68 1024.91 1025.03 1025.03 1024.94 1024.77 1024.55 1024.31 1024.07 1023.86
1007.88 1008.34 1008.89 1009.57 1010.35 1011.22 1012.12 1013.01 1013.83 1014.53 1015.09 1015.52 1015.84 1016.11 1016.37 1016.66 1017.02 1017.46 1017.97 1018.51 1019.07 1019.60 1020.08 1020.51 1020.89 1021.24 1021.59 1021.97 1022.38 1022.83 1023.32 1023.82 1024.29 1024.70 1025.01 1025.21 1025.28 1025.24 1025.11 1024.90 1024.65 1024.40 1024.16
1007.51 1007.98 1008.54 1009.22 1010.01 1010.88 1011.80 1012.70 1013.54 1014.28 1014.88 1015.35 1015.71 1016.02 1016.32 1016.65 1017.03 1017.49 1018.00 1018.54 1019.08 1019.58 1020.03 1020.42 1020.76 1021.06 1021.38 1021.72 1022.12 1022.57 1023.08 1023.60 1024.12 1024.58 1024.96 1025.22 1025.35 1025.36 1025.26 1025.08 1024.85 1024.60 1024.36
Thickness
5758 5763 5764 5765 5766 5766 5767 5768 5769 5770 5770 5771 5771 5772 5772 5772 5773 5773 5773 5773 5773 5773 5774 5774 5774 5775 5775 5777 5777 5777 5775 5774 5773 5773 5773 5772 5772 5772 5772 5772 5772 5771 5772
5761 5762 5763 5763 5764 5765 5765 5766 5767 5767 5768 5768 5769 5769 5770 5770 5770 5770 5770 5770 5770 5770 5771 5771 5771 5772 5772 5774 5775 5774 5772 5771 5771 5771 5770 5770 5769 5769 5769 5769 5769 5769 5769
5760 5760 5761 5762 5762 5762 5763 5763 5764 5765 5765 5765 5766 5766 5767 5767 5767 5767 5767 5767 5767 5767 5768 5768 5768 5769 5769 5769 5770 5770 5769 5768 5768 5767 5767 5767 5766 5766 5767 5767 5767 5767 5767
5759 5759 5759 5760 5760 5760 5760 5761 5761 5762 5762 5763 5763 5763 5764 5764 5764 5764 5764 5764 5764 5764 5765 5765 5766 5765 5766 5766 5767 5767 5766 5765 5765 5764 5763 5763 5764 5763 5764 5764 5764 5764 5764
5756 5756 5757 5757 5758 5758 5758 5758 5758 5758 5759 5759 5759 5760 5760 5761 5761 5761 5761 5761 5761 5761 5761 5762 5762 5762 5763 5763 5763 5763 5762 5761 5761 5760 5760 5760 5760 5761 5761 5761 5761 5762 5762
5754 5754 5754 5754 5755 5755 5755 5756 5755 5755 5755 5755 5756 5756 5757 5757 5758 5758 5758 5758 5758 5758 5758 5758 5759 5759 5759 5759 5759 5759 5758 5757 5756 5756 5756 5756 5757 5758 5758 5758 5758 5758 5759
5750 5751 5751 5751 5751 5752 5754 5755 5753 5752 5752 5752 5752 5752 5753 5753 5754 5754 5754 5754 5754 5754 5755 5755 5755 5755 5755 5755 5755 5755 5754 5753 5752 5752 5752 5752 5753 5754 5754 5754 5754 5755 5755
5748 5748 5748 5748 5748 5749 5750 5750 5749 5748 5748 5748 5748 5749 5749 5749 5750 5750 5750 5750 5751 5751 5751 5751 5751 5751 5751 5751 5751 5751 5750 5749 5748 5748 5748 5748 5749 5749 5750 5750 5750 5750 5751
5746 5745 5745 5745 5744 5744 5744 5745 5744 5744 5744 5744 5744 5745 5745 5745 5745 5746 5746 5747 5747 5747 5747 5747 5747 5748 5747 5747 5747 5746 5745 5745 5744 5744 5744 5744 5744 5745 5745 5745 5746 5746 5747
5742 5741 5741 5741 5741 5740 5740 5741 5741 5740 5740 5740 5740 5741 5741 5741 5741 5742 5742 5743 5743 5743 5743 5743 5743 5743 5743 5743 5743 5742 5741 5740 5740 5739 5739 5740 5740 5740 5740 5741 5741 5742 5743
5737 5737 5737 5737 5737 5737 5737 5737 5737 5736 5736 5736 5736 5737 5737 5737 5737 5737 5738 5739 5739 5739 5739 5739 5739 5739 5739 5739 5738 5738 5737 5736 5735 5735 5735 5735 5736 5736 5736 5737 5737 5737 5738
5731 5733 5734 5734 5734 5734 5734 5733 5733 5732 5732 5732 5732 5732 5733 5733 5733 5733 5734 5734 5735 5735 5735 5735 5735 5735 5734 5734 5733 5733 5732 5731 5731 5730 5731 5731 5731 5731 5731 5732 5732 5732 5733
5731 5731 5731 5731 5731 5732 5731 5730 5729 5729 5728 5728 5728 5728 5728 5729 5729 5729 5729 5730 5730 5730 5730 5730 5730 5730 5730 5729 5728 5728 5727 5726 5726 5726 5726 5726 5727 5726 5726 5726 5727 5728 5728
5728 5728 5729 5729 5728 5728 5728 5727 5726 5725 5724 5724 5724 5724 5724 5724 5724 5725 5724 5725 5725 5725 5726 5725 5725 5725 5724 5724 5723 5723 5722 5721 5721 5721 5721 5721 5722 5722 5721 5721 5722 5722 5723
5726 5726 5726 5727 5725 5725 5724 5723 5722 5721 5721 5721 5720 5720 5720 5720 5720 5721 5720 5720 5721 5721 5721 5721 5720 5720 5719 5719 5718 5717 5716 5716 5716 5715 5715 5716 5716 5716 5717 5717 5717 5717 5718
5724 5724 5724 5724 5723 5722 5721 5719 5719 5718 5717 5717 5717 5717 5717 5717 5717 5717 5716 5716 5716 5716 5716 5716 5716 5715 5714 5714 5713 5712 5711 5710 5710 5710 5710 5710 5710 5711 5712 5712 5712 5712 5712
5723 5723 5722 5721 5720 5719 5718 5717 5715 5714 5714 5713 5713 5713 5713 5713 5713 5713 5712 5711 5711 5711 5711 5711 5710 5710 5709 5709 5707 5707 5706 5705 5705 5705 5704 5704 5704 5705 5706 5706 5707 5707 5707
5721 5720 5720 5720 5717 5715 5714 5713 5712 5711 5710 5709 5709 5708 5708 5708 5708 5707 5706 5705 5706 5706 5706 5705 5704 5703 5702 5702 5701 5701 5701 5700 5700 5699 5698 5698 5698 5699 5699 5700 5700 5701 5701
5719 5718 5716 5716 5713 5711 5710 5709 5708 5707 5706 5705 5704 5704 5703 5703 5703 5702 5701 5701 5701 5700 5700 5700 5698 5697 5696 5696 5696 5695 5695 5694 5694 5693 5692 5692 5692 5692 5693 5694 5694 5694 5695
5717 5716 5714 5712 5710 5708 5706 5705 5703 5702 5701 5700 5700 5699 5699 5698 5698 5697 5696 5695 5695 5694 5693 5693 5692 5691 5690 5690 5691 5689 5688 5688 5688 5687 5686 5686 5686 5686 5687 5687 5688 5688 5689
5712 5710 5709 5708 5706 5705 5702 5700 5697 5694 5695 5695 5695 5695 5694 5693 5692 5692 5690 5689 5689 5688 5687 5687 5686 5685 5684 5684 5682 5679 5680 5681 5680 5680 5680 5680 5680 5680 5680 5681 5681 5681 5682
5708 5706 5705 5704 5702 5701 5700 5698 5695 5693 5691 5690 5690 5689 5689 5688 5687 5686 5685 5683 5683 5682 5681 5681 5680 5678 5677 5678 5674 5670 5666 5668 5671 5673 5672 5673 5673 5674 5674 5674 5675 5675 5675
5702 5702 5703 5700 5699 5698 5697 5694 5692 5688 5686 5684 5683 5683 5683 5683 5682 5680 5679 5678 5677 5677 5675 5674 5674 5673 5670 5670 5670 5666 5659 5656 5659 5663 5664 5665 5666 5666 5667 5667 5668 5668 5669
5699 5700 5699 5697 5695 5694 5693 5690 5687 5682 5679 5679 5679 5679 5678 5678 5677 5676 5675 5674 5673 5672 5670 5670 5669 5668 5666 5664 5664 5663 5661 5658 5653 5652 5655 5657 5658 5659 5659 5660 5660 5661 5662
5696 5694 5694 5692 5690 5689 5688 5686 5682 5679 5677 5675 5675 5674 5673 5672 5671 5670 5670 5669 5668 5667 5666 5665 5664 5663 5661 5659 5657 5656 5654 5653 5651 5647 5645 5647 5649 5651 5652 5653 5653 5654 5655
5690 5689 5688 5686 5684 5684 5683 5680 5677 5675 5673 5670 5669 5667 5666 5666 5665 5665 5664 5663 5662 5661 5660 5659 5658 5657 5656 5654 5652 5650 5648 5646 5644 5642 5639 5639 5640 5643 5645 5646 5646 5647 5648